Regional Weather Roundup
Issued by NWS

Home | Current Version | Previous Version | Graphics & Text | Print | Product List | Glossary On
Versions: 1 2 3 4 5 6 7 8 9 10 11 12 13 14 15 16 17 18 19 20 21 22 23 24 25 26 27 28 29 30 31 32 33 34 35 36 37 38 39 40 41 42 43 44 45 46 47 48 49 50
776
ASUS43 KIND 272009
RWRIN

WEATHER ROUNDUP FOR INDIANA
NATIONAL WEATHER SERVICE INDIANAPOLIS IN
400 PM EDT THU APR 27 2017

NOTE: "FAIR" INDICATES FEW OR NO CLOUDS BELOW 12,000 FEET WITH NO
SIGNIFICANT WEATHER AND/OR OBSTRUCTIONS TO VISIBILITY.

* - STATION DOES NOT REPORT WEATHER SUCH AS PRECIPITATION OR FOG.

+ - STATION NOT QUALITY CONTROLLED BY THE NATIONAL WEATHER SERVICE.
    USE DATA WITH CAUTION...ESPECIALLY DEWPOINT AND RELATIVE
    HUMIDITY OBSERVATIONS.

INZ001>003-010>013-019-020-272100-
NORTHWEST INDIANA

CITY           SKY/WX    TMP DP  RH WIND       PRES   REMARKS
GARY /AIRPORT/ CLOUDY    48  37  66 SW14G26   29.70R
KNOX *+        CLOUDY    48  23  37 SW15      29.70R
LA PORTE +     CLOUDY    47  40  77 SW20G26   29.70R
MICHIGAN CITY+ CLOUDY    46  37  71 SW18G25   29.70R
MONTICELLO +   CLOUDY    49  42  74 SW17      29.73R
RENSSELAER +   CLOUDY    48  41  76 SW17G24   29.73R
VALPARAISO     CLOUDY    48  39  71 SW22      29.71R

$$

LMZ046-743>745-272100-
SOUTHERN LAKE MICHIGAN

STATION/POSITION TIME  TEMP    WIND        PRES    WAVE
                       AIR SEA DIR/SP/G            HT
                 (UTC) (F)     (DEG/KT/KT) (MB)    (FT)
BURNS HARBOR     1940   47     240/ 15/ 23 1005.8R
MICHIGAN CITY    1940   46     220/ 19/ 21   N/A
5NW MICH CITY    2000   46 47                N/A     4

$$

INZ004-005-014>016-021>024-272100-
NORTH CENTRAL INDIANA

CITY           SKY/WX    TMP DP  RH WIND       PRES   REMARKS
ELKHART        CLOUDY    50  39  66 W17G23    29.68R
GOSHEN         CLOUDY    51  40  65 W23       29.68R
LOGANSPORT +   CLOUDY    48  41  76 W20       29.74R
PERU/GRISSOM   CLOUDY    52  45  77 W16G22    29.71R
ROCHESTER +    PTSUNNY   52  41  66 W15G26    29.71R
SOUTH BEND     CLOUDY    48  40  73 W17       29.69R
WARSAW +       CLOUDY    50  41  71 W18       29.70R

$$

INZ006>009-017-018-025>027-272100-
NORTHEAST INDIANA

CITY           SKY/WX    TMP DP  RH WIND       PRES   REMARKS
ANGOLA *+      CLOUDY    52  43  71 SW16      29.67R
AUBURN +       CLOUDY    54  43  66 SW12G20   29.69R
FORT WAYNE     CLOUDY    53  43  68 W20G26    29.70R
HUNTINGTON +   CLOUDY    51  43  75 W13G22    29.72R
KENDALLVILLE + CLOUDY    52  44  75 W21G28    29.68R

$$

INZ028-029-035-036-043>045-051>053-272100-
WEST CENTRAL INDIANA

CITY           SKY/WX    TMP DP  RH WIND       PRES   REMARKS
CRAWFORDSVL +  CLOUDY    47  47  99 SW15      29.76R
GREENCASTLE +  CLOUDY    52  43  71 SW8G17    29.77R
LAFAYETTE      CLOUDY    49  44  83 W13G22    29.74R
TERRE HAUTE    CLOUDY    53  44  71 W14       29.78R

$$

INZ030>032-037>040-046>048-054>057-064-065-272100-
CENTRAL INDIANA

CITY           SKY/WX    TMP DP  RH WIND       PRES   REMARKS
CP ATTERBURY + CLOUDY    55  45  67 W12G18    29.77R
COLUMBUS       CLOUDY    59  41  51 W16       29.77R
FISHERS *+     CLOUDY    54  48  82 W8        29.75
FRANKFORT +    CLOUDY    53  46  76 W18       29.75R
GREENWOOD *+   CLOUDY    56  43  62 W12G21    29.77R
INDIANAPOLIS   CLOUDY    57  45  64 SW15      29.75R
-EAGLE CREEK   CLOUDY    55  43  63 SW13      29.74R
KOKOMO +       CLOUDY    52  44  74 W16G24    29.74R
MARION +       CLOUDY    52  43  71 W18G25    29.74R HAZE
MT COMFORT *+  CLOUDY    54  45  71 W15       29.76R
SHELBYVILLE    CLOUDY    60  44  55 W17G25    29.75R
ZIONSVILLE +   CLOUDY    52  44  76 W14       29.76R

$$

INZ033-034-041-042-049-050-058-059-272100-
EAST CENTRAL INDIANA

CITY           SKY/WX    TMP DP  RH WIND       PRES   REMARKS
MUNCIE         CLOUDY    57  44  62 W17G25    29.72R
RICHMOND +     CLOUDY    59  48  67 W18G24    29.74R

$$

INZ060-061-067>069-081>083-085>088-272100-
SOUTHWEST INDIANA

CITY           SKY/WX    TMP DP  RH WIND       PRES   REMARKS
EVANSVILLE     CLOUDY    61  48  62 W8        29.81R
HUNTINGBURG *+ CLOUDY    58  49  72 SW9       29.81R
WASHINGTON +   CLOUDY    57  45  65 W14       29.79S

$$

INZ062-063-066-070>080-084-089>092-272100-
SOUTH CENTRAL AND SOUTHEAST INDIANA

CITY           SKY/WX    TMP DP  RH WIND       PRES   REMARKS
BEDFORD +      CLOUDY    57  46  67 SW10      29.78R
BLOOMINGTON    CLOUDY    55  45  68 W12       29.77R
MADISON *+     PTSUNNY   61  46  59 W7        29.80R
NORTH VERNON + CLOUDY    59  46  63 SW17G23   29.77R
SEYMOUR +      CLOUDY    61  48  63 W13       29.78

$$





USA.gov is the U.S. government's official web portal to all federal, state and local government web resources and services.